Location: Wells
(51.2093°N, 2.6446°W)
Time: 20:36:30
(UTC+00:00)

YUBILEINY - Visible Passes

Search period start: 16 March 2026 00:00
Search period end: 26 March 2026 00:00
Orbit: 1478 x 1509 km, 82.5° (Epoch: 16 March)

Date Brightness Start Highest point End Pass type
(mag) Time Alt. Az. Time Alt. Az. Time Alt. Az.
16 Mar ? 00:11:29 10° NNE 00:14:38 12° NE 00:17:48 10° ENE visible
16 Mar ? 02:06:30 10° N 02:14:38 41° ENE 02:22:43 10° SE visible
16 Mar ? 04:03:22 10° NNW 04:11:52 59° W 04:20:17 10° SSW visible
16 Mar ? 19:11:54 10° W 19:17:39 19° NW 19:23:27 10° N visible
17 Mar ? 01:17:06 10° N 01:24:09 26° NE 01:31:07 10° ESE visible
17 Mar ? 03:13:32 10° N 03:22:19 88° E 03:31:02 10° S visible
17 Mar ? 05:11:25 10° NNW 05:18:00 25° WNW 05:24:35 10° SW visible
18 Mar ? 00:28:00 10° N 00:33:13 17° NE 00:38:24 10° E visible
18 Mar ? 02:23:51 10° N 02:32:26 56° ENE 02:40:57 10° SSE visible
18 Mar ? 04:21:04 10° NNW 04:29:01 42° W 04:36:56 10° SSW visible
18 Mar ? 19:32:09 10° WNW 19:36:10 14° NW 19:40:13 10° NNW visible
18 Mar ? 23:40:15 10° NNE 23:41:52 11° NNE 23:43:29 10° NE visible
19 Mar ? 01:34:20 10° N 01:42:13 36° ENE 01:50:00 10° SE visible
19 Mar ? 03:31:05 10° NNW 03:39:42 68° W 03:46:44 17° S visible
19 Mar ? 05:29:49 10° NW 05:34:47 17° WNW 05:39:44 10° WSW visible
20 Mar ? 00:45:01 10° N 00:51:35 23° NE 00:58:06 10° ESE visible
20 Mar ? 02:41:17 10° N 02:50:04 77° ENE 02:56:19 22° SSE visible
20 Mar ? 04:38:57 10° NNW 04:46:02 29° W 04:52:07 13° SW visible
20 Mar ? 23:56:06 10° N 00:00:32 14° NE 00:04:57 10° ENE visible
21 Mar ? 01:51:40 10° N 02:00:05 49° ENE 02:06:11 20° SE visible
21 Mar ? 03:48:43 10° NNW 03:56:56 48° W 04:02:00 24° SSW visible
21 Mar ? 18:58:38 10° WNW 19:03:29 16° NW 19:08:20 10° N visible
22 Mar ? 01:02:12 10° N 01:09:44 31° ENE 01:16:13 13° ESE visible
22 Mar ? 02:58:49 10° NNW 03:07:32 78° W 03:12:03 33° S visible
22 Mar ? 04:57:08 10° NNW 05:02:52 20° WNW 05:07:54 12° WSW visible
23 Mar ? 00:12:58 10° N 00:19:00 20° NE 00:24:59 10° E visible
23 Mar ? 02:09:04 10° N 02:17:47 68° ENE 02:22:13 33° SSE visible
23 Mar ? 04:06:31 10° NNW 04:14:01 34° W 04:18:05 23° SW visible
23 Mar ? 19:19:36 10° NW 19:22:06 11° NW 19:24:37 10° NNW visible
23 Mar ? 23:24:19 10° NNE 23:27:49 13° NE 23:31:18 10° ENE visible
24 Mar ? 01:19:29 10° N 01:27:42 43° ENE 01:32:29 24° ESE visible
24 Mar ? 03:16:25 10° NNW 03:24:50 56° W 03:28:20 36° SSW visible
24 Mar ? 05:16:03 10° NW 05:19:33 13° WNW 05:23:02 10° W visible
25 Mar ? 00:30:04 10° N 00:37:15 27° ENE 00:42:48 15° ESE visible
25 Mar ? 02:26:33 10° N 02:35:19 89° W 02:38:39 44° S visible
25 Mar ? 04:24:32 10° NNW 04:30:56 24° WNW 04:34:31 18° WSW visible
25 Mar ? 23:40:58 10° N 23:46:22 17° NE 23:51:45 10° E visible
